TimePST,TemperatureF,Dew PointF,Humidity,Sea Level PressureIn,VisibilityMPH,Wind Direction,Wind SpeedMPH,Gust SpeedMPH,PrecipitationIn,Events,Conditions,WindDirDegrees,DateUTC
12:00 AM,42.1,35.6,78,30.27,-9999.0,South,15.0,-,N/A,,Unknown,170,2013-01-01 08:00:00
1:00 AM,43,35,64,30.26,,South,16.1,,,,,180,2013-01-01 09:00:00
1:00 AM,42.8,34.9,74,30.26,-9999.0,South,16.1,-,N/A,,Unknown,180,2013-01-01 09:00:00
2:00 AM,43.5,35.6,74,30.25,-9999.0,South,15.0,-,N/A,,Unknown,180,2013-01-01 10:00:00
3:00 AM,43.7,33.6,68,30.23,-9999.0,South,15.0,-,N/A,,Unknown,170,2013-01-01 11:00:00
4:00 AM,44,34,59,30.21,,South,18.4,,,,,170,2013-01-01 12:00:00
5:00 AM,44.8,33.8,65,30.19,-9999.0,South,18.4,-,N/A,,Unknown,180,2013-01-01 13:00:00
6:00 AM,45.5,31.3,58,30.17,-9999.0,South,18.4,-,N/A,,Unknown,170,2013-01-01 14:00:00
7:00 AM,46,34,52,30.12,,South,18.4,,,,,180,2013-01-01 15:00:00
7:00 AM,45.5,34.2,65,30.12,-9999.0,South,18.4,-,N/A,,Unknown,180,2013-01-01 15:00:00
8:00 AM,47.3,31.5,54,30.07,-9999.0,South,16.1,21.9,N/A,,Unknown,170,2013-01-01 16:00:00
9:00 AM,47.3,34.0,60,30.05,-9999.0,South,21.9,28.8,N/A,,Unknown,180,2013-01-01 17:00:00
10:00 AM,51,27,26,30.04,,South,17.3,,,,,170,2013-01-01 18:00:00
10:00 AM,50.5,26.8,40,30.04,-9999.0,South,17.3,26.5,N/A,,Unknown,170,2013-01-01 18:00:00
11:00 AM,51.4,23.5,34,30.01,-9999.0,South,25.3,44.9,N/A,,Unknown,170,2013-01-01 19:00:00
12:00 PM,45.9,39.7,79,30.00,-9999.0,South,36.8,48.3,N/A,,Unknown,190,2013-01-01 20:00:00
1:00 PM,46,39,69,29.98,,South,38.0,,,,,180,2013-01-01 21:00:00
1:00 PM,46.0,39.0,76,29.98,-9999.0,South,38.0,49.5,N/A,,Unknown,180,2013-01-01 21:00:00
2:00 PM,46.2,38.5,74,29.94,-9999.0,South,38.0,49.5,N/A,,Unknown,190,2013-01-01 22:00:00
3:00 PM,45.3,40.6,84,29.93,-9999.0,South,52.9,66.7,N/A,,Unknown,180,2013-01-01 23:00:00
4:00 PM,46,39,70,29.92,,South,39.1,,,,,180,2013-01-02 00:00:00
4:00 PM,45.7,39.4,79,29.92,-9999.0,South,39.1,48.3,0.02,,Unknown,180,2013-01-02 00:00:00
5:00 PM,46.2,38.8,75,29.93,-9999.0,South,28.8,44.9,0.06,,Unknown,170,2013-01-02 01:00:00
6:00 PM,45.9,39.6,79,29.91,-9999.0,South,26.5,35.7,0.06,,Unknown,180,2013-01-02 02:00:00
7:00 PM,46,40,74,29.91,,South,35.7,,,,,180,2013-01-02 03:00:00
7:00 PM,45.7,40.3,81,29.91,-9999.0,South,35.7,47.2,0.01,,Unknown,180,2013-01-02 03:00:00
8:00 PM,45.3,40.3,83,29.90,-9999.0,South,35.7,57.5,0.02,,Unknown,180,2013-01-02 04:00:00
9:00 PM,45.3,40.6,84,29.91,-9999.0,South,42.6,52.9,0.02,,Unknown,180,2013-01-02 05:00:00
10:00 PM,45,41,79,29.89,,South,43.7,,,,,180,2013-01-02 06:00:00
10:00 PM,45.3,40.6,84,29.89,-9999.0,South,43.7,58.7,0.02,,Unknown,180,2013-01-02 06:00:00
11:00 PM,45.9,40.3,81,29.86,-9999.0,South,39.1,50.6,0.03,,Unknown,180,2013-01-02 07:00:00